This demonstration page uses our WeatherBlox Daily Observations layout. Learn more.

Left ArrowRight Arrow

Hourly Observations for October 25, 2016

Temp ( °F °C ) Dew Point ( °F °C ) Humidity (%) Winds ( mph kmh ) Pressure ( in mb ) Visibility ( mi km ) Precip ( " mm )
12:15 am 00:15 Partly Cloudy 52 11 37 3 58 58 NNW 10 17 30.30 1026 10 16 N/A
12:35 am 00:35 Clear 50 10 37 3 62 62 NW 8 13 30.30 1026 10 16 N/A
12:55 am 00:55 Clear 48 9 37 3 66 66 NNW 6 9 30.30 1026 10 16 N/A
1:15 am 01:15 Clear 48 9 36 2 62 62 NNW 9 15 30.30 1026 10 16 N/A
1:35 am 01:35 Clear 50 10 36 2 58 58 NNW 10 17 30.30 1026 10 16 N/A
1:55 am 01:55 Clear 50 10 36 2 58 58 N 8 13 30.33 1027 10 16 N/A
2:15 am 02:15 Clear 50 10 36 2 58 58 NNW 6 9 30.33 1027 10 16 N/A
2:35 am 02:35 Mostly Cloudy 45 7 36 2 71 71 WNW 6 9 30.33 1027 10 16 N/A
2:55 am 02:55 Partly Cloudy 46 8 36 2 66 66 NW 3 6 30.33 1027 10 16 N/A
3:15 am 03:15 Partly Cloudy 43 6 36 2 76 76 WNW 5 7 30.33 1027 10 16 N/A
3:35 am 03:35 Partly Cloudy 45 7 36 2 71 71 WNW 5 7 30.33 1027 10 16 N/A
3:55 am 03:55 Mostly Cloudy 45 7 36 2 71 71 W 5 7 30.33 1027 10 16 N/A
4:15 am 04:15 Mostly Cloudy 43 6 37 3 81 81 N N/A 30.33 1027 10 16 N/A
4:35 am 04:35 Clear 43 6 37 3 81 81 WSW 5 7 30.33 1027 10 16 N/A
4:55 am 04:55 Clear 41 5 37 3 87 87 W 5 7 30.33 1027 10 16 N/A
5:15 am 05:15 Clear 41 5 37 3 87 87 W 3 6 30.33 1027 10 16 N/A
5:35 am 05:35 Clear 43 6 37 3 81 81 W 3 6 30.33 1027 10 16 N/A
5:55 am 05:55 Clear 45 7 36 2 71 71 W 3 6 30.33 1027 10 16 N/A
6:15 am 06:15 Clear 45 7 36 2 71 71 N N/A 30.33 1027 10 16 N/A
6:35 am 06:35 Clear 41 5 36 2 81 81 W 6 9 30.33 1027 10 16 N/A
6:55 am 06:55 Clear 43 6 36 2 76 76 WNW 3 6 30.36 1028 10 16 N/A
7:15 am 07:15 Clear 41 5 36 2 81 81 WNW 12 19 30.36 1028 10 16 N/A
7:35 am 07:35 Sunny 43 6 36 2 76 76 WNW 9 15 30.36 1028 10 16 N/A
7:55 am 07:55 Sunny 45 7 37 3 76 76 WNW 9 15 30.36 1028 10 16 N/A
8:15 am 08:15 Sunny 46 8 37 3 71 71 WNW 9 15 30.36 1028 10 16 N/A
8:35 am 08:35 Sunny 50 10 37 3 62 62 WNW 6 9 30.39 1029 10 16 N/A
8:55 am 08:55 Sunny 52 11 37 3 58 58 WNW 8 13 30.39 1029 10 16 N/A
9:15 am 09:15 Sunny 52 11 37 3 58 58 W 9 15 30.39 1029 10 16 N/A
9:35 am 09:35 Sunny 54 12 37 3 54 54 WNW 10 17 30.39 1029 10 16 N/A
9:55 am 09:55 Sunny 54 12 37 3 54 54 WNW 9 15 30.39 1029 10 16 N/A
10:15 am 10:15 Sunny 55 13 39 4 55 55 NW 17 28 30.33 1027 10 16 N/A
10:35 am 10:35 Sunny 55 13 39 4 55 55 WNW 13 20 30.33 1027 10 16 N/A
10:55 am 10:55 Sunny 55 13 37 3 51 51 NW 20 31 30.33 1027 10 16 N/A
11:15 am 11:15 Sunny 55 13 39 4 55 55 NW 12 19 30.33 1027 10 16 N/A
11:35 am 11:35 Partly Cloudy 57 14 39 4 51 51 WNW 20 31 30.33 1027 10 16 N/A
11:55 am 11:55 Partly Cloudy 59 15 39 4 48 48 NW 14 22 30.33 1027 10 16 N/A
12:15 pm 12:15 Partly Cloudy 59 15 37 3 45 45 NW 12 19 30.33 1027 10 16 N/A
12:35 pm 12:35 Partly Cloudy 59 15 37 3 45 45 NW 13 20 30.33 1027 10 16 N/A
12:55 pm 12:55 Partly Cloudy 59 15 37 3 45 45 NW 10 17 30.33 1027 10 16 N/A
1:15 pm 13:15 Partly Cloudy 61 16 37 3 42 42 NW 16 26 30.30 1026 10 16 N/A
1:35 pm 13:35 Partly Cloudy 61 16 37 3 42 42 WNW 15 24 30.30 1026 10 16 N/A
1:55 pm 13:55 Mostly Cloudy 61 16 37 3 42 42 WNW 17 28 30.30 1026 10 16 N/A
2:15 pm 14:15 Partly Cloudy 61 16 36 2 39 39 NNW 18 30 30.27 1025 10 16 N/A
2:35 pm 14:35 Partly Cloudy 63 17 36 2 37 37 NW 16 26 30.27 1025 10 16 N/A
2:55 pm 14:55 Sunny 61 16 36 2 39 39 NNW 18 30 30.27 1025 10 16 N/A
3:15 pm 15:15 Sunny 61 16 36 2 39 39 NNW 13 20 30.27 1025 10 16 N/A
3:35 pm 15:35 Sunny 63 17 36 2 37 37 NNW 12 19 30.27 1025 10 16 N/A
3:55 pm 15:55 Partly Cloudy 61 16 36 2 39 39 WNW 13 20 30.27 1025 10 16 N/A
4:15 pm 16:15 Sunny 61 16 36 2 39 39 NNW 14 22 30.27 1025 10 16 N/A
4:35 pm 16:35 Sunny 61 16 36 2 39 39 NW 14 22 30.27 1025 10 16 N/A
4:55 pm 16:55 Sunny 61 16 36 2 39 39 NW 14 22 30.27 1025 10 16 N/A
5:15 pm 17:15 Sunny 59 15 37 3 45 45 N 12 19 30.30 1026 10 16 N/A
5:35 pm 17:35 Sunny 59 15 37 3 45 45 N 12 19 30.30 1026 10 16 N/A
5:55 pm 17:55 Sunny 57 14 37 3 48 48 N 10 17 30.30 1026 10 16 N/A
6:15 pm 18:15 Sunny 55 13 36 2 47 47 N 9 15 30.33 1027 10 16 N/A
6:35 pm 18:35 Clear 55 13 36 2 47 47 N 9 15 30.33 1027 10 16 N/A
6:55 pm 18:55 Clear 55 13 36 2 47 47 N 10 17 30.33 1027 10 16 N/A
7:15 pm 19:15 Clear 54 12 36 2 51 51 N 10 17 30.36 1028 10 16 N/A
7:35 pm 19:35 Clear 54 12 36 2 51 51 N 7 11 30.39 1029 10 16 N/A
7:55 pm 19:55 Clear 52 11 36 2 54 54 N 5 7 30.39 1029 10 16 N/A
8:15 pm 20:15 Clear 50 10 36 2 58 58 NNW 3 6 30.39 1029 10 16 N/A
8:35 pm 20:35 Clear 48 9 36 2 62 62 N 3 6 30.42 1030 10 16 N/A
8:55 pm 20:55 Clear 50 10 36 2 58 58 N N/A 30.42 1030 10 16 N/A
9:15 pm 21:15 Clear 50 10 36 2 58 58 N N/A 30.42 1030 10 16 N/A
9:35 pm 21:35 Clear 45 7 36 2 71 71 NNW 3 6 30.42 1030 10 16 N/A
9:55 pm 21:55 Clear 46 8 36 2 66 66 N N/A 30.42 1030 10 16 N/A
10:15 pm 22:15 Clear 45 7 36 2 71 71 N N/A 30.42 1030 10 16 N/A
10:35 pm 22:35 Clear 43 6 37 3 81 81 N N/A 30.42 1030 10 16 N/A
10:55 pm 22:55 Clear 43 6 37 3 81 81 N N/A 30.42 1030 10 16 N/A
11:15 pm 23:15 Clear 45 7 36 2 71 71 N N/A 30.45 1031 10 16 N/A
11:35 pm 23:35 Clear 41 5 37 3 87 87 N N/A 30.45 1031 10 16 N/A
11:55 pm 23:55 Clear 39 4 37 3 93 93 N N/A 30.45 1031 10 16 N/A

Powered by AerisWeather